CYGFM04

Last updated on Sat Dec 13 2025 00:02:23 GMT+0000 (Coordinated Universal Time)

1 41885U 16078B 25346.24577234 .00030184 00000+0 51410-3 0 9991 2 41885 34.9354 25.1489 0009400 206.3964 153.6280 15.50323569499868
UTC large
Height (km)
Speed (km/s)
/
Latitude / Longitude
Inclination (degrees)
Orbital Period (minutes)
Azimuth
Elevation
Range (km)
Doppler Factor

Next 0 passes for location: London (51.5072 / 0.1276)

Sorry there are no passes over London.